Dewpoint
63 57 54 50 45 41 36 27 14 14 15 12 16 13 1 13 21 16 14 18 16 43 55 60 58 58 50 51 58 61 62 54 53 51 47 60 67 68 70 71 71 72 72 73 73 73 73 74 74 74 73 73 73 73 73 73 73 73 73 73 73 73 73 73 72 72 72 72 72 71 71 71 71 71 71 70 70 70 70 70 70 70 70 70 69 69 68 69 68 68 68 68 68 68 68 68 68
57 49 47 49 42 36 32 21 20 21 12 3 4 14 11 15 14 14 13 14 30 54 59 60 61 61 61 62 62 61 62 63 64 64 65 67 68 69 70 70 71 71 72 73 73 73 73 73 74 74 73 73 73 73 72 72 73 73 73 73 73 73 73 73 73 72 72 72 72 72 71 71 71 71 70 70 71 71 71 70 70 69 70 69 69 69 69 68 68 68 68 68 68 68 68 68 69
54 40 39 41 33 34 31 22 15 18 9 2 -7 12 14 12 12 25 26 22 52 58 58 57 58 58 59 60 57 57 56 65 65 65 65 67 66 68 70 70 71 72 72 73 73 73 73 73 73 73 73 73 73 72 73 72 72 73 73 73 73 73 73 73 72 72 72 72 72 72 71 71 71 71 71 71 71 71 70 71 70 70 70 70 69 69 69 68 69 68 68 67 67 68 68 69 69
46 46 35 33 33 25 24 24 19 15 5 -4 6 7 13 13 20 24 52 55 56 56 54 56 57 59 58 59 61 62 62 63 66 65 65 65 66 69 70 71 72 72 73 73 72 72 73 73 73 73 73 73 73 73 72 72 73 73 73 73 72 72 72 72 72 72 72 72 72 72 71 71 71 71 71 71 71 71 71 70 69 70 69 69 69 68 68 68 68 68 68 68 67 68 69 69 69
39 44 32 28 24 27 23 24 20 15 8 14 -3 1 20 17 15 18 20 37 40 52 55 56 57 59 60 60 60 60 62 66 66 66 66 67 69 69 70 71 71 72 72 72 72 72 72 73 73 73 73 73 73 73 72 73 73 73 73 72 72 72 72 72 72 72 72 72 72 72 72 72 72 72 71 71 71 71 71 70 70 70 69 69 69 69 68 68 68 68 69 69 69 70 70 70 70
32 29 35 29 27 26 19 15 20 16 8 11 9 9 17 18 14 18 18 18 45 54 56 56 56 57 61 62 63 63 65 63 65 66 67 67 69 68 69 70 71 71 71 71 72 72 72 73 73 73 73 73 73 73 72 72 72 73 73 72 72 72 72 72 71 71 72 72 72 72 72 72 72 71 71 71 71 71 70 70 70 70 69 68 68 69 69 69 69 69 69 68 70 70 69 69 69
30 23 25 22 23 25 20 16 14 17 14 15 15 15 15 16 15 19 18 34 48 54 57 57 59 59 58 59 64 66 65 67 66 66 67 68 68 68 69 70 70 71 71 71 72 72 72 73 73 73 73 73 72 72 72 72 72 73 73 72 72 72 72 72 72 72 71 72 72 72 72 71 71 71 71 71 70 70 70 70 69 69 69 70 69 69 69 69 69 68 69 70 70 70 69 69 69
42 22 28 21 19 18 20 21 20 19 15 17 17 19 20 19 20 18 17 20 20 50 57 57 58 60 60 63 60 65 65 65 66 67 67 67 67 68 69 69 69 70 71 72 72 72 74 72 73 73 73 73 72 72 72 72 72 72 73 72 72 72 72 72 72 71 71 71 71 71 71 70 70 70 70 70 70 70 69 69 69 69 69 69 69 69 69 69 69 70 70 70 70 70 70 69 69
27 24 31 16 19 20 17 13 13 17 19 17 16 22 38 28 24 22 18 19 49 56 56 57 58 57 61 61 61 64 65 66 66 67 67 66 67 68 69 69 69 70 71 72 72 72 72 72 72 72 73 73 72 72 72 72 72 72 72 72 72 72 72 72 71 71 71 71 71 70 71 70 71 70 70 70 70 70 69 69 70 69 69 69 69 69 69 70 70 70 70 69 69 69 69 69 69
23 22 19 19 20 16 16 12 13 12 15 16 15 16 15 15 14 16 15 19 46 56 59 61 59 60 61 60 62 64 65 66 66 66 66 66 67 69 69 69 70 70 71 71 72 72 72 72 72 72 72 73 72 72 72 72 72 73 72 72 72 72 72 72 72 71 71 71 71 71 71 71 71 71 70 70 70 69 69 70 70 70 69 69 69 70 70 70 70 69 69 69 69 69 68 68 68
21 20 22 17 19 15 13 8 16 16 16 17 13 14 13 13 13 12 13 13 55 58 60 62 61 61 61 61 62 67 66 66 65 64 65 66 68 69 69 70 70 71 71 71 71 71 71 72 73 72 72 72 72 72 72 73 73 73 72 72 72 72 72 71 71 71 71 71 71 71 71 71 71 71 70 70 70 70 70 70 70 70 70 70 70 70 70 70 69 69 69 68 68 67 67 67 68
18 21 15 18 17 11 13 14 13 11 16 16 12 14 11 11 12 21 32 55 57 58 58 59 60 61 60 60 61 65 65 65 65 65 65 67 68 69 69 69 70 70 70 70 70 70 71 72 72 72 72 72 72 72 72 73 73 72 72 72 72 72 72 71 71 71 71 71 72 72 72 71 71 71 71 70 70 70 70 69 70 70 70 70 70 70 70 69 69 69 68 68 68 67 67 67 68
19 17 15 12 13 13 21 12 11 31 16 9 9 9 9 9 8 40 50 57 58 55 56 58 62 60 58 59 64 65 64 65 65 65 66 67 68 68 69 69 69 69 69 69 69 69 70 71 71 72 72 72 72 72 72 72 72 72 72 72 72 71 72 72 71 71 71 72 72 72 72 71 71 71 71 70 70 70 70 69 69 69 69 70 70 70 70 69 69 69 68 68 68 67 67 67 67
22 19 15 11 14 12 12 14 10 11 8 8 9 10 9 11 9 48 56 52 48 50 54 61 61 61 61 62 62 62 64 65 65 66 66 67 67 67 67 68 68 68 68 68 68 69 70 71 71 71 71 71 71 71 72 72 72 72 72 72 72 72 72 72 72 72 72 72 71 71 71 71 71 71 70 70 70 69 70 70 69 69 69 70 70 70 70 69 69 68 68 68 68 67 67 67 67
28 23 25 17 13 11 10 10 8 7 8 10 12 7 8 26 25 45 53 54 56 60 61 61 62 57 58 60 60 62 64 65 66 66 66 66 66 66 66 67 67 68 67 68 69 69 70 70 70 70 71 71 71 71 71 72 72 72 72 72 72 72 72 72 72 72 71 71 71 71 71 71 71 71 70 70 70 70 69 70 70 69 69 70 70 70 70 69 69 68 68 68 68 67 67 67 67
26 19 18 17 11 10 10 9 11 9 9 10 10 8 8 11 46 43 49 53 58 57 59 58 58 53 60 60 61 63 65 65 67 66 66 65 65 65 65 66 66 67 66 67 69 70 71 70 70 70 71 71 71 71 71 71 72 72 72 72 72 72 72 72 72 71 71 71 71 71 71 71 70 70 70 70 70 70 70 70 69 69 69 70 70 70 70 69 68 68 68 68 67 67 67 67 67
21 21 14 15 11 10 9 10 11 10 10 9 10 8 6 12 28 56 59 58 56 57 61 61 61 62 61 62 63 65 65 66 66 65 65 64 64 63 63 63 65 65 67 68 69 70 70 70 70 70 70 71 71 71 71 71 71 72 71 72 72 72 72 71 71 71 71 71 70 71 70 69 69 68 69 69 70 70 70 69 69 69 69 69 70 69 69 69 68 68 68 68 67 67 68 68 67
20 19 17 14 13 9 16 11 12 9 10 9 11 10 8 9 25 54 55 56 59 60 60 62 63 63 64 64 65 65 66 66 65 64 63 63 62 62 62 62 63 64 66 68 69 70 70 70 70 70 70 71 71 71 71 71 71 71 70 70 71 70 71 71 70 70 70 69 71 69 68 69 67 67 68 69 69 69 69 69 69 68 69 69 69 69 69 69 69 68 68 68 68 68 67 62 62
20 21 17 12 14 12 18 15 14 10 11 12 12 10 9 7 22 36 52 52 54 57 59 61 61 63 64 64 64 65 66 65 64 63 63 62 61 61 61 62 62 64 66 67 68 69 69 70 70 70 70 70 70 70 70 70 70 70 70 70 70 71 71 71 70 70 68 68 68 68 68 67 67 68 69 69 70 70 69 68 68 68 67 68 68 69 69 69 69 69 69 68 69 67 62 62 61
19 19 15 16 17 15 16 14 13 11 13 11 11 9 8 8 8 22 49 51 55 55 57 59 60 60 62 63 64 64 65 64 64 63 63 62 61 60 61 61 61 63 65 67 67 69 69 69 69 69 70 70 70 70 70 70 70 70 69 69 69 69 69 69 69 68 67 67 67 67 67 67 67 67 70 69 69 69 69 68 67 66 66 67 68 68 68 69 69 69 69 69 66 65 62 62 62
16 16 14 13 14 14 13 15 14 14 14 12 10 12 7 7 9 38 51 50 48 49 58 58 59 61 62 63 64 64 64 64 64 64 63 62 62 61 61 61 61 63 65 67 68 68 68 68 69 69 69 70 69 70 70 70 70 70 69 69 69 69 68 68 68 67 67 67 67 67 67 67 66 65 65 66 67 66 66 66 67 66 66 66 66 67 66 67 67 66 65 65 63 64 64 62 62
14 14 15 15 13 11 12 13 14 14 12 11 10 8 6 8 8 45 44 37 31 45 55 59 62 63 62 63 64 64 64 63 63 63 63 63 62 61 61 60 61 63 66 66 67 68 68 68 68 68 69 69 69 69 69 69 70 69 69 69 69 68 68 68 67 66 66 66 66 66 67 66 65 64 64 65 65 65 65 65 65 65 65 66 67 66 66 65 64 64 64 64 64 63 63 62 61
15 16 12 12 11 11 12 12 13 13 12 9 7 8 8 7 13 24 35 32 31 39 56 61 62 63 63 63 63 63 64 63 63 63 64 63 63 62 61 61 62 64 65 65 66 67 67 68 68 68 68 69 69 69 69 68 69 69 69 69 68 68 67 67 66 66 66 66 66 67 65 64 64 63 63 64 65 65 65 65 65 64 64 65 65 65 64 64 64 64 64 64 63 63 63 62 61
16 14 13 12 11 10 12 11 11 10 10 8 10 11 7 6 4 30 54 57 58 59 61 61 62 63 63 63 63 63 63 64 64 64 64 64 63 62 61 61 62 63 64 64 65 66 66 67 67 67 68 68 68 68 69 68 68 68 69 69 68 69 67 66 65 65 66 66 66 66 66 64 64 64 64 64 64 64 65 64 64 64 64 65 65 65 65 65 64 64 64 63 64 63 63 63 62
13 13 12 12 10 10 9 8 7 9 9 10 8 7 7 8 6 51 55 57 59 61 62 62 62 62 63 63 63 63 63 63 63 63 63 64 64 63 62 61 62 63 64 65 65 65 65 65 66 67 68 68 68 68 68 68 68 68 68 68 68 68 66 65 64 65 66 66 65 66 67 64 63 63 63 64 64 64 63 62 63 64 64 64 64 64 64 64 64 63 63 63 63 62 62 62 63
10 12 11 9 7 6 6 7 6 7 8 10 9 7 7 11 42 54 54 58 60 61 61 61 62 62 62 62 62 63 63 63 63 62 62 63 63 63 62 62 63 64 65 66 65 64 65 66 67 67 67 67 67 67 67 67 67 67 68 68 68 67 66 65 64 64 65 65 65 65 65 64 64 64 63 63 63 63 63 62 63 63 64 64 64 63 64 64 64 64 63 63 62 62 62 62 61
8 10 8 6 7 11 11 8 7 8 7 7 8 6 5 12 42 37 56 60 61 61 60 61 61 61 61 61 62 62 62 62 62 62 61 62 63 62 62 62 64 65 65 64 64 65 66 66 67 68 68 68 67 67 67 67 67 67 67 68 68 66 65 65 64 64 64 64 64 64 65 65 64 63 63 63 62 62 62 61 61 62 63 63 63 62 63 63 63 64 63 63 62 62 62 60 60
12 13 15 15 13 8 10 7 6 6 5 5 5 4 12 18 43 38 59 60 60 60 60 60 60 60 61 61 61 61 61 61 61 61 61 61 62 62 62 62 63 63 63 63 64 64 66 67 67 68 68 68 67 67 67 67 66 66 67 67 67 66 66 65 64 64 65 64 64 64 64 65 65 63 63 63 62 62 62 62 61 62 62 63 64 63 63 63 62 62 63 63 62 61 61 59 60
14 14 11 11 7 5 6 3 5 5 5 5 4 3 3 25 23 36 60 60 60 60 59 60 60 60 60 60 60 60 60 60 60 60 61 61 62 62 61 61 62 62 63 63 64 64 65 66 67 68 68 68 67 67 66 66 66 67 66 65 66 67 66 65 64 64 64 64 64 64 64 64 64 63 62 64 65 62 62 61 61 62 62 63 64 64 64 63 63 63 62 62 59 58 57 57 59
13 11 11 7 7 6 6 8 9 5 6 4 4 4 6 5 7 46 60 60 60 59 59 59 59 60 60 60 59 58 58 58 59 60 60 61 61 61 61 61 62 62 61 62 63 63 64 65 67 67 67 67 67 66 66 66 66 66 66 66 67 66 65 65 65 64 65 64 64 63 63 64 63 64 63 63 64 62 62 62 62 61 62 63 64 64 64 64 64 63 62 61 62 57 56 58 58
10 12 11 10 7 8 6 8 7 5 8 3 5 7 5 5 8 49 60 60 59 58 59 59 59 59 59 59 58 58 57 57 58 58 58 59 59 59 60 60 60 60 60 60 61 62 63 63 66 67 67 66 67 66 67 66 65 66 65 66 65 65 65 64 64 64 64 63 63 63 63 64 63 64 64 63 62 62 62 62 61 62 62 63 63 64 64 64 63 63 62 59 57 58 58 60 59
15 7 9 15 6 9 8 17 9 3 6 8 3 12 4 3 14 59 60 60 58 58 58 59 59 59 59 59 58 58 57 57 58 58 58 58 58 59 59 59 58 60 60 60 61 62 62 63 66 66 66 66 65 65 65 65 65 64 65 65 64 65 64 64 64 64 63 62 63 63 64 64 63 63 63 62 61 61 62 61 61 62 63 62 63 63 63 63 62 61 60 58 57 59 59 59 59
20 9 18 11 14 12 13 10 13 9 7 6 3 4 11 13 22 59 61 59 58 57 58 58 58 58 58 58 58 58 57 57 57 58 58 58 58 58 59 58 58 61 61 60 61 61 62 62 65 65 65 65 64 64 64 63 63 63 64 63 63 63 63 63 63 63 63 62 61 62 63 64 63 63 63 62 61 61 61 61 62 62 63 62 62 62 62 62 61 60 60 59 58 60 60 60 60
16 20 10 19 12 15 15 15 15 10 5 3 4 5 13 14 48 59 60 60 58 58 58 58 58 58 58 58 58 58 57 57 57 58 58 58 58 58 58 60 58 59 59 59 60 61 61 61 64 64 64 64 63 63 62 62 62 61 61 62 63 61 61 62 62 62 61 60 61 61 62 63 63 63 62 62 61 61 61 61 62 63 63 62 61 61 62 61 59 60 60 60 60 60 60 60 60
12 15 17 17 18 15 14 13 14 9 8 6 6 7 7 12 47 58 59 60 59 58 57 58 58 58 58 58 58 58 57 57 58 57 58 57 58 57 58 59 58 58 58 58 59 60 60 62 64 64 63 62 62 61 60 60 60 60 59 59 60 59 60 61 61 61 61 60 60 61 62 63 62 62 63 62 61 62 60 61 62 63 62 61 60 60 61 61 60 60 59 60 61 61 60 59 60
14 13 13 17 15 17 14 14 15 14 11 3 6 5 6 30 51 57 59 59 58 58 59 58 58 58 58 58 58 58 57 57 57 57 57 57 57 57 58 58 58 58 58 58 58 59 60 61 62 61 60 61 60 59 59 59 59 59 58 58 58 58 58 61 58 60 60 60 60 62 62 61 61 62 63 62 61 60 60 61 62 63 62 61 60 59 59 60 60 59 59 60 60 61 61 61 60
15 16 15 14 15 15 16 14 15 17 10 9 9 12 12 35 52 56 58 58 58 58 58 58 58 58 58 58 58 57 57 57 57 57 57 57 56 57 57 57 57 57 57 58 58 59 59 60 60 59 59 60 60 58 58 58 58 56 56 56 55 54 56 56 55 55 56 58 60 60 62 61 60 61 62 61 60 62 61 60 61 62 62 61 60 59 60 61 60 59 60 59 59 58 58 61 60
18 20 19 17 15 15 14 12 18 26 18 14 18 17 28 38 48 54 56 57 56 56 57 57 57 57 57 57 57 57 57 55 56 55 56 56 56 56 56 56 58 57 56 57 57 58 59 59 60 58 57 59 59 58 58 57 55 57 57 56 54 54 55 55 53 54 56 57 58 60 61 60 60 60 62 60 61 62 61 60 61 62 61 61 60 61 60 62 60 59 59 58 58 57 58 60 60
26 22 20 15 13 14 14 18 25 27 22 16 17 14 22 37 46 49 53 56 56 56 57 57 57 57 57 57 57 57 55 55 54 55 55 56 56 56 56 56 56 56 57 57 57 57 57 57 58 56 56 57 56 57 56 55 54 55 54 53 54 52 53 54 54 56 56 54 54 55 56 58 59 59 61 62 60 61 60 60 61 62 61 61 61 60 61 62 60 59 59 58 58 59 60 61 59
24 17 15 14 14 11 10 24 29 27 24 19 18 20 22 30 29 38 37 51 47 53 55 56 58 57 57 57 57 57 56 55 54 55 55 55 56 56 56 56 55 56 57 56 56 56 56 57 56 55 55 54 54 56 56 55 55 54 53 53 53 52 53 55 54 54 53 53 53 54 55 53 54 56 59 61 60 60 60 61 61 61 61 62 60 59 60 60 61 61 60 58 59 58 58 59 60
27 25 18 14 13 13 10 16 26 31 29 29 20 20 19 23 37 37 36 40 47 51 53 53 55 56 56 56 56 56 56 55 55 54 55 55 55 56 56 57 56 56 57 57 56 55 56 55 55 54 53 53 54 57 55 55 54 53 53 53 54 53 53 52 52 52 53 56 54 53 53 54 54 55 56 58 61 60 60 59 59 59 60 61 60 60 59 60 59 60 60 60 59 59 58 59 60
23 27 21 19 20 20 21 27 22 22 19 25 16 15 16 21 25 33 35 39 43 47 52 51 53 53 54 54 55 54 54 54 55 54 54 54 55 55 55 56 56 56 57 57 57 56 55 55 54 53 52 54 55 54 55 54 54 52 52 52 51 50 50 50 50 50 50 51 52 52 52 53 52 53 53 56 59 61 59 58 58 59 60 60 60 59 59 59 59 60 60 61 60 60 60 59 59
16 21 25 21 20 24 25 22 19 14 15 22 27 16 9 22 20 23 27 34 41 44 49 50 50 51 52 53 53 53 53 53 52 53 54 54 54 55 56 56 56 57 57 57 57 56 55 55 53 53 53 54 54 54 54 54 52 52 52 51 51 51 51 49 49 50 51 51 52 52 51 52 51 52 53 54 57 58 56 57 58 58 59 59 60 58 58 58 60 61 61 61 61 60 60 59 59
16 23 25 21 22 22 24 26 21 16 27 30 26 20 15 14 18 25 28 32 39 41 45 48 49 50 51 51 53 53 53 53 53 53 54 54 54 56 56 57 57 57 57 58 57 57 56 55 54 54 55 55 53 54 54 53 52 52 51 51 52 51 51 51 51 51 52 54 51 51 50 50 51 51 53 53 55 56 55 55 55 56 56 57 58 57 58 59 59 59 59 59 60 60 60 60 59
18 27 22 21 19 26 25 22 24 25 16 13 21 25 16 16 21 27 31 31 35 39 42 45 46 49 50 50 52 53 53 53 53 53 53 54 54 55 56 57 56 57 58 58 58 57 56 56 56 54 54 53 52 53 53 53 53 52 52 52 51 51 51 52 53 53 51 51 50 49 49 49 50 50 51 52 53 54 56 53 54 54 55 55 56 54 54 54 55 55 56 56 57 57 58 59 60
22 28 23 26 28 29 26 23 18 20 14 11 18 25 13 15 22 20 24 31 34 37 39 42 44 46 48 49 51 52 52 52 52 53 53 54 54 55 55 56 56 57 57 58 58 57 57 56 56 54 53 52 52 52 52 52 53 53 51 51 51 52 53 51 51 51 49 49 48 48 48 49 49 50 50 51 51 52 52 53 52 53 53 55 55 52 52 52 52 52 52 53 54 53 53 55 57
23 19 16 16 19 23 28 22 24 20 9 14 21 26 16 13 20 21 20 21 23 26 27 32 39 43 46 47 50 51 51 52 52 52 53 53 53 55 56 57 56 56 57 58 57 57 57 57 56 54 53 53 52 51 51 52 52 52 51 51 52 52 51 51 51 50 49 48 48 47 48 48 48 49 50 51 51 52 53 54 52 53 54 56 53 51 51 50 50 51 51 50 50 50 50 50 51
18 19 18 15 15 19 18 20 19 13 10 17 21 24 20 11 16 22 28 28 29 28 26 27 32 38 43 46 49 51 51 51 52 52 52 52 54 54 55 56 56 56 57 57 57 57 57 57 56 54 52 52 51 50 51 51 52 52 52 52 52 52 52 51 51 50 49 48 47 48 47 47 47 48 49 50 50 51 52 51 53 51 52 51 51 51 51 50 51 50 50 50 49 50 50 50 48
17 19 17 16 10 13 9 15 8 8 13 18 24 25 17 17 20 24 30 33 35 32 29 28 31 32 41 45 49 50 50 51 52 52 52 52 54 54 55 55 55 56 57 57 57 57 57 56 55 54 53 52 51 50 51 51 51 52 52 52 53 53 52 52 51 50 49 48 48 48 47 47 47 47 48 48 49 49 51 50 50 50 50 51 51 51 51 51 50 50 49 49 49 48 48 48 47
14 14 17 13 6 4 4 8 10 16 18 21 23 25 16 21 23 29 36 40 43 43 43 43 41 38 44 48 48 48 49 50 51 51 51 51 53 54 55 55 55 56 57 57 57 57 57 56 56 54 53 53 52 51 50 50 51 52 52 53 53 53 52 52 52 51 50 49 48 48 47 47 46 46 47 48 48 50 50 51 50 50 50 50 51 50 50 50 50 49 49 48 48 48 48 48 47
10 15 13 16 14 7 2 11 5 11 17 20 23 17 15 16 20 29 35 39 44 45 45 45 46 47 47 48 49 49 49 49 50 50 49 49 51 51 53 54 55 56 57 57 57 57 57 56 55 54 53 54 53 52 52 51 52 52 53 53 53 53 53 52 52 52 51 49 49 48 47 47 47 47 47 48 51 49 49 49 49 49 50 50 51 51 51 50 50 49 49 49 49 48 48 48 47
14 16 13 13 14 20 9 16 17 18 15 14 15 14 21 23 27 33 37 44 45 45 46 46 46 47 48 48 48 49 49 50 51 51 51 51 51 51 52 54 55 56 57 57 57 56 56 55 54 55 55 54 54 53 52 52 53 53 53 53 53 54 54 53 53 52 51 50 49 49 48 48 48 48 48 49 49 49 48 49 49 49 49 50 50 49 49 49 49 49 49 48 48 49 47 46 46
16 7 12 16 20 21 17 16 20 14 15 10 16 20 23 25 27 29 35 42 42 44 44 46 46 47 48 48 49 49 49 50 50 51 51 51 51 51 52 53 54 55 56 57 57 56 55 54 55 55 55 56 55 53 53 53 54 53 53 53 54 53 53 53 53 52 51 51 50 49 49 49 49 49 49 51 49 48 49 49 48 48 49 49 49 49 48 48 49 49 48 47 47 47 47 46 46
9 10 11 21 25 25 21 12 12 7 7 10 16 16 21 22 20 29 35 40 40 42 43 44 44 46 47 47 48 49 50 50 50 51 50 51 51 51 52 52 54 55 55 56 56 54 55 55 56 56 56 55 55 55 54 54 53 53 53 53 53 53 53 53 53 52 52 52 51 50 50 50 50 51 51 52 49 49 49 53 48 48 48 49 49 48 48 48 49 48 48 47 47 48 47 47 48
9 13 14 14 10 9 12 17 6 6 5 5 14 16 18 22 22 25 29 37 39 41 42 43 44 44 45 46 47 48 50 50 50 50 49 50 50 50 51 52 53 54 55 56 55 55 56 56 57 57 56 55 55 55 54 54 54 54 54 54 54 53 54 54 55 54 53 53 52 51 50 50 50 51 52 51 49 49 49 49 48 48 48 49 48 49 49 49 48 48 49 48 47 47 46 46 47
12 12 12 18 22 22 12 14 19 14 2 5 14 18 15 22 25 27 26 34 38 40 40 42 43 45 45 45 46 48 48 49 49 49 49 49 49 49 50 52 53 53 53 54 54 54 55 56 55 55 55 54 54 54 54 54 55 55 54 54 54 53 53 54 54 53 53 52 50 51 51 50 51 52 51 50 49 49 49 49 48 48 48 48 48 49 48 48 47 48 48 47 47 47 47 47 47
11 12 9 17 20 22 18 20 13 13 8 4 7 7 16 22 27 30 29 30 31 40 41 41 43 44 45 46 47 48 48 48 47 47 48 49 49 49 50 50 51 52 52 53 54 54 54 55 54 54 54 54 54 54 55 54 54 55 54 53 53 53 53 54 54 54 53 53 52 52 51 51 51 51 51 51 50 49 49 49 48 50 48 48 48 48 48 48 48 47 47 47 46 46 46 46 48
15 18 13 17 15 14 10 7 20 18 14 7 8 7 18 24 35 35 32 34 33 37 42 42 43 44 44 45 46 47 48 47 47 47 48 48 48 49 50 50 51 52 52 52 52 53 53 53 53 53 53 53 53 54 54 53 54 54 54 54 53 53 53 53 53 54 53 53 53 53 52 51 50 51 51 51 51 51 51 50 49 49 48 48 49 49 48 48 48 47 48 48 47 46 46 46 46